Fort Polk, LA

5:21 PM CDT on May 24, 2018 (GMT -0500)
Fort Polk

Weather History for KAQV - April, 2014

Change the Weather History Date:

Friday, April 18, 2014

  Actual Average (KPOE) Record (KPOE)
Temperature  
Mean Temperature 62 °F -  
Max Temperature 73 °F 75 °F 91 °F (2006)
Min Temperature 51 °F 55 °F 39 °F (2001)
Degree Days  
Heating Degree Days 4    
Growing Degree Days 12 (Base 50)    
Moisture  
Dew Point 53 °F    
Average Humidity 81    
Maximum Humidity 96    
Minimum Humidity 55    
Precipitation  
Precipitation 0.00 in - - ()
Sea Level Pressure  
Sea Level Pressure 30.14 in    
Wind  
Wind Speed 2 mph (NNE)    
Max Wind Speed 9 mph    
Max Gust Speed -    
Visibility 9 miles    
Events Thunderstorm    
Averages and records for this station are not official NWS values.
T = Trace of Precipitation, MM = Missing Value Source: NWS Daily Summary

Daily Weather History Graph

Daily Weather History Graph

Search for Another Location

Airport or City:

Astronomy

Apr. 18, 2014 Rise Set
Actual Time 6:41 AM CDT 7:43 PM CDT
Civil Twilight 6:16 AM CDT 8:09 PM CDT
Nautical Twilight 5:46 AM CDT 8:38 PM CDT
Astronomical Twilight 5:16 AM CDT 9:09 PM CDT
Moon 11:21 PM CDT (4/18) 9:12 AM CDT (4/18)
Length of Visible Light 13h 52m
Length of Day
13h 02m
Waning Gibbous, 87% of the Moon is Illuminated
Apr 18
Waning Gibbous
Apr 22
Last Quarter
Apr 29
New
May 6
First Quarter
May 14
Full

Hourly Weather History & Observations

Time (CDT) Temp. Dew Point Humidity Pressure Visibility Wind Dir Wind Speed Gust Speed Precip Events Conditions
12:56 AM 51.1 °F 48.9 °F 92% 30.16 in 5.0 mi Calm Calm - N/A   Clear
1:56 AM 51.1 °F 48.9 °F 92% 30.14 in 7.0 mi Calm Calm - N/A   Scattered Clouds
2:07 AM 51.1 °F 50.0 °F 96% 30.14 in 7.0 mi Calm Calm - N/A   Mostly Cloudy
2:38 AM 52.0 °F 50.0 °F 93% 30.13 in 8.0 mi Calm Calm - N/A   Scattered Clouds
2:56 AM 51.1 °F 48.9 °F 92% 30.12 in 6.0 mi Calm Calm - N/A   Clear
3:49 AM 52.0 °F 50.0 °F 93% 30.12 in 6.0 mi Variable 3.5 mph - N/A   Overcast
3:56 AM 52.0 °F 50.0 °F 93% 30.12 in 8.0 mi Calm Calm - N/A   Overcast
4:07 AM 52.0 °F 50.0 °F 93% 30.12 in 8.0 mi Calm Calm - N/A   Mostly Cloudy
4:56 AM 52.0 °F 50.0 °F 93% 30.12 in 6.0 mi Variable 3.5 mph - N/A   Overcast
5:10 AM 52.0 °F 50.0 °F 93% 30.13 in 8.0 mi Calm Calm - N/A   Overcast
5:56 AM 53.1 °F 51.1 °F 93% 30.14 in 8.0 mi NNW 3.5 mph - N/A   Overcast
6:11 AM 53.1 °F 51.1 °F 93% 30.14 in 9.0 mi North 3.5 mph - N/A Thunderstorm Thunderstorm
6:26 AM 53.1 °F 51.1 °F 93% 30.14 in 8.0 mi Calm Calm - N/A   Mostly Cloudy
6:40 AM 53.1 °F 51.1 °F 93% 30.15 in 8.0 mi North 3.5 mph - N/A Thunderstorm Thunderstorm
6:56 AM 53.1 °F 51.1 °F 93% 30.15 in 8.0 mi Calm Calm - N/A   Overcast
7:56 AM 54.0 °F 52.0 °F 93% 30.17 in 7.0 mi Calm Calm - N/A   Overcast
8:24 AM 55.0 °F 52.0 °F 89% 30.17 in 7.0 mi North 3.5 mph - N/A Thunderstorm Thunderstorm
8:46 AM 55.9 °F 53.1 °F 90% 30.17 in 7.0 mi Calm Calm - N/A   Overcast
8:56 AM 57.0 °F 54.0 °F 89% 30.18 in 9.0 mi Variable 3.5 mph - N/A   Overcast
9:29 AM 60.1 °F 54.0 °F 80% 30.18 in 10.0 mi North 5.8 mph - N/A Thunderstorm Thunderstorm
9:50 AM 62.6 °F 53.6 °F 72% 30.18 in 10.0 mi Variable 5.8 mph - N/A   Mostly Cloudy
9:56 AM 64.0 °F 55.0 °F 73% 30.18 in 10.0 mi NNE 6.9 mph - N/A   Scattered Clouds
10:56 AM 66.9 °F 55.0 °F 66% 30.17 in 10.0 mi Variable 6.9 mph - N/A   Scattered Clouds
11:56 AM 69.1 °F 55.9 °F 63% 30.16 in 10.0 mi North 8.1 mph - N/A   Mostly Cloudy
12:56 PM 72.0 °F 55.0 °F 55% 30.14 in 10.0 mi Variable 4.6 mph - N/A   Mostly Cloudy
1:56 PM 71.1 °F 55.0 °F 57% 30.14 in 10.0 mi NNE 8.1 mph - N/A   Overcast
2:56 PM 72.0 °F 55.0 °F 55% 30.12 in 10.0 mi NNE 5.8 mph - N/A   Overcast
3:56 PM 71.1 °F 55.0 °F 57% 30.11 in 10.0 mi NE 6.9 mph - N/A   Overcast
4:56 PM 72.0 °F 55.9 °F 57% 30.10 in 10.0 mi NE 9.2 mph - N/A   Overcast
5:56 PM 72.0 °F 55.0 °F 55% 30.09 in 10.0 mi NNE 8.1 mph - N/A   Mostly Cloudy
6:56 PM 71.1 °F 55.0 °F 57% 30.10 in 10.0 mi Variable 3.5 mph - N/A   Clear
7:56 PM 64.9 °F 57.9 °F 78% 30.11 in 10.0 mi Calm Calm - N/A   Overcast
8:56 PM 64.0 °F 57.9 °F 80% 30.14 in 10.0 mi Calm Calm - N/A   Overcast
9:56 PM 61.0 °F 57.0 °F 87% 30.14 in 10.0 mi Calm Calm - N/A   Clear
10:56 PM 57.9 °F 55.0 °F 90% 30.15 in 10.0 mi Calm Calm - N/A   Clear
11:56 PM 57.0 °F 55.0 °F 93% 30.14 in 9.0 mi Calm Calm - N/A   Clear